Location: Katowice
(50.2611°N, 19.0242°E)
Time: 13:47:35
(UTC+02:00)

ISS - Pass Details

Date: 23 March 2019
Orbit: 408 x 410 km, 51.6° (Epoch: 24 April)

Event Time Altitude Azimuth Distance (km) Brightness Sun altitude
Rises 20:18:20 0° 246° (WSW) 2,330 0.5 -21.7°
Reaches altitude 10° 20:20:25 10° 244° (WSW) 1,471 -0.6 -21.9°
Enters shadow 20:22:18 31° 238° (WSW) 742 -2.3 -22.2°
